(2020 HA) |
Classification: Apollo [NEO] SPK-ID: 54016541 |
[ hide orbit diagram ]
For accurate long-term ephemerides, please instead use our Horizons system.This orbit viewer was implemented using two-body methods, and hence should not be used for determining accurate long-term trajectories (over several years or decades) or planetary encounter circumstances.
Orbital Elements at Epoch 2458956.5 (2020-Apr-17.0) TDB
Reference: JPL 1 (heliocentric ecliptic J2000)
Element | Value | Uncertainty (1-sigma) | Units |
e | .6458241464455368 | 0.0015571 | |
a | 2.668689464127302 | 0.011451 | au |
q | .9451853688290902 | 0.00010002 | au |
i | 5.26529254278623 | 0.0097242 | deg |
node | 195.6581724007903 | 0.0028382 | deg |
peri | 48.84706800743697 | 0.0082901 | deg |
M | 353.4658200977066 | 0.044505 | deg |
tp | 2458985.402411178089 (2020-May-15.90241118) | 0.010893 | TDB |
period | 1592.375505372911 4.36 | 10.249 0.02806 | d yr |
n | .2260773283596153 | 0.0014551 | deg/d |
Q | 4.392193559425513 | 0.018846 | au |
|
| | Orbit Determination Parameters
Additional Information
|
[ show covariance matrix ]
Physical Parameter Table
Parameter |
Symbol |
Value |
Units |
Sigma |
Reference |
Notes |
absolute magnitude |
H |
25.721 |
|
.51523 |
1 |
autocmod 2.8 |
|
[ show close-approach data ]
|